Location: Mahannah Oil Field
(37.4664°N, 96.6003°W)
Time: 15:12:52
(UTC+00:00)

Altair - Pass Details

Date: 24 January 2021
Orbit: 1501 x 1682 km, 47.2° (Epoch: 05 March)

Event Time Altitude Azimuth Distance (km) Brightness Sun altitude
Exits shadow 10:57:23 42° 215° (SW) 2,219 8.0 -31.3°
Maximum altitude 11:01:24 74° 142° (SE) 1,720 7.7 -30.5°
Drops below altitude 10° 11:11:32 10° 60° (ENE) 3,948 10.3 -28.5°
Sets 11:14:43 0° 58° (ENE) 4,938 11.0 -27.9°
